[[{"header":{"parameterUnit":"m.s-1","parameterCategory":1,"la1":30.2991,"la2":30.254,"lo1":-89.0895,"lo2":-89.0444,"dx":0.0017,"dy":0.0017,"nx":28,"ny":28,"refTime":"2023-01-07T03:00:00:Z","depth":0,"parameterNumber":2,"parameterNumberName":"U-component_of_WINDS"},"data":[0,0,0,0,0,0,0,0,0,0,0,0,0,0,0,0,0,0,0,0,0,0,0,0,0,0,0,0,0,0,0,0,0,0,0,0,0,0,0,0,0,0,0,0,0,0,0,0,0,0,0,0,0,0,0,0,0,0,-1.6691,-1.6692,0,-1.6725,-1.6726,-1.6726,-1.6725,-1.6725,-1.6724,-1.6724,-1.6759,-1.676,-1.6762,0,0,0,0,0,0,0,0,0,0,0,0,0,-1.6626,-1.6627,-1.6691,-1.6692,-1.6692,-1.6725,-1.6726,-1.6726,-1.6725,-1.6725,-1.6724,-1.6724,-1.6759,-1.676,-1.6762,0,0,0,0,0,0,0,0,0,0,0,0,0,-1.6657,-1.6628,-1.6691,-1.6696,-1.6697,-1.6725,-1.6726,-1.6726,-1.6726,-1.6725,-1.6724,-1.6724,-1.6758,-1.676,-1.6762,-1.6788,0,0,-1.6768,-1.6769,0,0,0,0,0,0,0,0,-1.6655,-1.6659,-1.6695,-1.6696,-1.6696,-1.672,-1.6715,-1.6747,-1.6726,-1.6715,-1.6724,-1.6723,-1.6747,-1.675,-1.6758,-1.679,-1.6791,-1.6768,-1.677,-1.6771,-1.6771,0,0,0,0,0,0,0,-1.6653,-1.6658,-1.6705,-1.6695,-1.6696,-1.6696,-1.67,-1.6721,-1.6734,-1.6715,-1.6716,-1.672,-1.6747,-1.6756,-1.6758,-1.6792,-1.6768,-1.677,-1.6771,-1.6772,-1.6847,-1.6848,0,0,0,0,0,0,-1.665,-1.6656,-1.6704,-1.6706,-1.6674,-1.6698,-1.6702,-1.6713,-1.6734,-1.6736,-1.672,-1.6719,-1.6752,-1.6756,-1.676,-1.6791,-1.6771,-1.6772,-1.6774,-1.6846,-1.6847,-1.6848,0,0,0,0,0,0,-1.6648,-1.6654,-1.6702,-1.6681,-1.6687,-1.67,-1.6713,-1.6714,-1.6723,-1.6737,-1.674,-1.6726,-1.6752,-1.6757,-1.6781,-1.6792,-1.6773,-1.6775,-1.6845,-1.6847,-1.6848,-1.6855,0,0,0,0,0,0,-1.6646,-1.6653,-1.6664,-1.6681,-1.6688,-1.6723,-1.6713,-1.6716,-1.6726,-1.6726,-1.6744,-1.6746,-1.6752,-1.6778,-1.6783,-1.6795,-1.6777,-1.6844,-1.6846,-1.6847,-1.6854,-1.6856,-1.6858,0,0,0,0,0,-1.6644,-1.6664,-1.6664,-1.667,-1.6701,-1.6724,-1.6728,-1.6734,-1.6727,-1.6737,-1.6747,-1.6746,-1.679,-1.678,-1.6786,-1.6799,-1.6844,-1.6846,-1.6847,-1.6853,-1.6856,-1.6858,0,0,0,0,0,0,-1.6648,-1.6667,-1.6667,-1.6693,-1.6707,-1.6724,-1.6737,-1.6737,-1.6753,-1.6752,-1.6759,-1.6763,-1.6787,-1.6795,-1.6784,-1.6825,-1.6816,-1.6819,-1.6818,-1.6821,-1.6824,-1.6821,-1.6778,0,0,0,0,0,-1.6652,-1.6669,-1.6684,-1.6706,-1.6713,-1.6724,-1.6734,-1.6737,-1.6752,-1.6758,-1.6769,-1.6783,-1.68,-1.6811,-1.6828,-1.6855,-1.6859,-1.6867,-1.6869,-1.6871,-1.6873,-1.6887,-1.6891,-1.6854,-1.6854,-1.6854,0,0,-1.6661,-1.6673,-1.6683,-1.6708,-1.6719,-1.6736,-1.6729,-1.6747,-1.676,-1.6761,-1.6784,-1.6793,-1.6809,-1.6835,-1.6846,-1.6842,-1.6884,-1.6873,-1.6874,-1.6875,-1.6889,-1.6893,-1.6896,-1.6855,-1.6855,-1.6855,0,0,-1.6685,-1.6696,-1.6715,-1.6726,-1.6743,-1.675,-1.6754,-1.6771,-1.6776,-1.68,-1.6801,-1.6816,-1.6846,-1.6857,-1.6867,-1.6895,-1.6894,-1.69,-1.6912,-1.6926,-1.6929,-1.6931,-1.6941,-1.6944,-1.6903,-1.6903,-1.6903,0,-1.6693,-1.6719,-1.6725,-1.6744,-1.6754,-1.6755,-1.6774,-1.6785,-1.6806,-1.6814,-1.6809,-1.6846,-1.6857,-1.6885,-1.6892,-1.69,-1.6905,-1.6898,-1.6928,-1.6931,-1.6933,-1.6942,-1.6946,-1.6903,-1.6903,-1.6903,-1.6903,0,-1.6728,-1.6746,-1.676,-1.678,-1.6792,-1.6811,-1.682,-1.6831,-1.6834,-1.6841,-1.6865,-1.6878,-1.6897,-1.6904,-1.6907,-1.6933,-1.693,-1.6926,-1.6918,-1.6937,-1.6946,-1.6949,-1.6904,-1.6904,-1.6904,-1.6903,0,0,-1.6756,-1.6779,-1.6784,-1.6792,-1.6811,-1.6825,-1.6844,-1.6862,-1.6872,-1.6886,-1.6902,-1.6927,-1.6924,-1.6935,-1.6939,-1.6951,-1.6972,-1.6947,-1.6947,-1.695,-1.7001,-1.7003,-1.7007,-1.6972,-1.6973,-1.6973,-1.6999,0,-1.6781,-1.6815,-1.682,-1.6849,-1.6866,-1.6867,-1.6883,-1.6896,-1.6904,-1.6919,-1.6927,-1.6944,-1.6939,-1.6946,-1.6958,-1.6967,-1.6982,-1.6965,-1.6987,-1.6987,-1.6982,-1.7011,-1.7014,-1.7037,-1.7003,-1.7003,-1.7004,0,-1.6816,-1.6831,-1.6861,-1.6877,-1.6884,-1.6899,-1.6916,-1.693,-1.6945,-1.6949,-1.6961,-1.6964,-1.6983,-1.6974,-1.7001,-1.6989,-1.6998,-1.7004,-1.7005,-1.7007,-1.6996,-1.7013,-1.7045,-1.7048,-1.7009,-1.7009,-1.7008,0,-1.6832,-1.686,-1.6882,-1.689,-1.6908,-1.6919,-1.6927,-1.6941,-1.6951,-1.6967,-1.6973,-1.6991,-1.7,-1.7014,-1.702,-1.7013,-1.7047,-1.7038,-1.7051,-1.7051,-1.7057,-1.7057,-1.709,-1.7064,-1.7064,-1.7064,-1.7064,0,-1.686,-1.6879,-1.6889,-1.6903,-1.6924,-1.693,-1.695,-1.6959,-1.6971,-1.6986,-1.6988,-1.7002,-1.701,-1.7026,-1.7031,-1.7052,-1.7057,-1.7061,-1.7062,-1.706,-1.706,-1.7066,-1.7064,-1.7065,-1.7065,-1.7065,-1.7064,0,-1.6882,-1.689,-1.6914,-1.6929,-1.6934,-1.6948,-1.6962,-1.6974,-1.6982,-1.7,-1.7005,-1.7016,-1.7034,-1.7043,-1.7065,-1.7069,-1.7093,-1.7093,-1.7088,-1.7088,-1.71,-1.7099,-1.7138,-1.7144,-1.7114,-1.7115,-1.7115,0,-1.6899,-1.6913,-1.693,-1.694,-1.6948,-1.6965,-1.6975,-1.6982,-1.6993,-1.701,-1.7021,-1.7039,-1.7054,-1.7082,-1.7093,-1.711,-1.711,-1.7123,-1.7113,-1.7111,-1.711,-1.7109,-1.711,-1.7125,-1.7125,-1.7125,-1.7125,0,-1.6928,-1.6931,-1.6947,-1.6963,-1.6975,-1.6989,-1.7002,-1.701,-1.7019,-1.7031,-1.7049,-1.706,-1.7083,-1.7101,-1.7118,-1.7127,-1.7128,-1.7129,-1.7132,-1.7131,-1.7127,-1.7128,-1.7092,-1.7128,-1.7127,-1.7127,-1.7127,-1.7127,-1.6948,-1.6961,-1.6974,-1.6991,-1.7001,-1.7013,-1.7026,-1.7034,-1.7049,-1.7068,-1.7071,-1.709,-1.7104,-1.7128,-1.7137,-1.7152,-1.7149,-1.7155,-1.7156,-1.7157,-1.7158,-1.7125,-1.7156,-1.7156,-1.7155,-1.7155,-1.7155,0,-1.6977,-1.6986,-1.7001,-1.7019,-1.7032,-1.7031,-1.7045,-1.7056,-1.7073,-1.7086,-1.71,-1.712,-1.7137,-1.7149,-1.7166,-1.7176,-1.7177,-1.718,-1.7179,-1.7181,-1.716,-1.7154,-1.7179,-1.7179,-1.7179,-1.7179,-1.7179,-1.7179,-1.6994,-1.7015,-1.7019,-1.7045,-1.7053,-1.7072,-1.708,-1.7091,-1.7101,-1.7124,-1.7138,-1.7145,-1.7157,-1.7175,-1.7191,-1.7194,-1.72,-1.7203,-1.7206,-1.7185,-1.7183,-1.7181,-1.7176,-1.7205,-1.7205,-1.7227,-1.7227,-1.7227]},{"header":{"parameterUnit":"m.s-1","parameterCategory":1,"la1":30.2991,"la2":30.254,"lo1":-89.0895,"lo2":-89.0444,"dx":0.0017,"dy":0.0017,"nx":28,"ny":28,"refTime":"2023-01-07T03:00:00:Z","depth":0,"parameterNumber":3,"parameterNumberName":"V-component_of_WINDS"},"data":[0,0,0,0,0,0,0,0,0,0,0,0,0,0,0,0,0,0,0,0,0,0,0,0,0,0,0,0,0,0,0,0,0,0,0,0,0,0,0,0,0,0,0,0,0,0,0,0,0,0,0,0,0,0,0,0,0,0,1.5572,1.5573,0,1.5667,1.5668,1.5669,1.5688,1.5687,1.5686,1.5686,1.5784,1.5787,1.5791,0,0,0,0,0,0,0,0,0,0,0,0,0,1.5407,1.541,1.5572,1.5573,1.5574,1.5667,1.5668,1.567,1.5688,1.5687,1.5686,1.5685,1.5783,1.5787,1.5791,0,0,0,0,0,0,0,0,0,0,0,0,0,1.5488,1.5411,1.5571,1.5594,1.5597,1.5667,1.5668,1.567,1.5688,1.5687,1.5686,1.5685,1.5782,1.5787,1.5792,1.5845,0,0,1.5807,1.5809,0,0,0,0,0,0,0,0,1.5484,1.5494,1.559,1.5593,1.5596,1.5664,1.5646,1.5729,1.5688,1.5654,1.5686,1.5684,1.5745,1.5753,1.5774,1.585,1.5854,1.5807,1.581,1.5813,1.5814,0,0,0,0,0,0,0,1.5478,1.549,1.5609,1.5591,1.5595,1.5601,1.5611,1.5662,1.5705,1.5657,1.5658,1.5669,1.5747,1.5769,1.5776,1.5855,1.5807,1.5812,1.5815,1.5817,1.5981,1.5983,0,0,0,0,0,0,1.5468,1.5485,1.5606,1.5612,1.5536,1.5604,1.5616,1.5644,1.5704,1.5712,1.567,1.567,1.5761,1.577,1.578,1.5847,1.5812,1.5817,1.582,1.598,1.5982,1.5983,0,0,0,0,0,0,1.5465,1.5479,1.5603,1.5549,1.5566,1.5608,1.564,1.5646,1.5668,1.5714,1.5722,1.5684,1.576,1.5773,1.5829,1.5851,1.5819,1.5824,1.5978,1.598,1.5982,1.5981,0,0,0,0,0,0,1.546,1.5477,1.5498,1.555,1.5568,1.565,1.5641,1.5649,1.5677,1.5677,1.573,1.5738,1.576,1.5821,1.5834,1.5857,1.5828,1.5977,1.5979,1.5982,1.598,1.5983,1.5986,0,0,0,0,0,1.5454,1.5494,1.5499,1.5513,1.5595,1.5651,1.5662,1.5687,1.5678,1.5699,1.5729,1.5736,1.5846,1.5827,1.5841,1.5866,1.5975,1.5978,1.5981,1.5978,1.5983,1.5986,0,0,0,0,0,0,1.5443,1.5501,1.5507,1.5565,1.5603,1.5654,1.5681,1.569,1.5732,1.573,1.576,1.5772,1.5827,1.5852,1.583,1.5922,1.591,1.5916,1.5903,1.5907,1.5911,1.5904,1.5832,0,0,0,0,0,1.5448,1.5488,1.5536,1.5583,1.5601,1.5638,1.5663,1.568,1.572,1.5737,1.577,1.581,1.5854,1.5882,1.5925,1.5983,1.5996,1.6008,1.6011,1.6013,1.6018,1.6052,1.6059,1.5993,1.5993,1.5993,0,0,1.5457,1.5494,1.5517,1.5582,1.5613,1.5655,1.5651,1.5696,1.5727,1.5743,1.5799,1.5825,1.5871,1.5929,1.5956,1.5952,1.6039,1.6017,1.6019,1.6023,1.6056,1.6062,1.6068,1.5995,1.5995,1.5995,0,0,1.5496,1.5527,1.557,1.5601,1.5649,1.5673,1.5683,1.5733,1.5751,1.5807,1.582,1.5858,1.5933,1.5966,1.5992,1.6044,1.6052,1.6057,1.6074,1.6107,1.6112,1.6117,1.6136,1.6142,1.6062,1.6062,1.6062,0,1.5502,1.5565,1.559,1.5634,1.5663,1.5679,1.5723,1.5752,1.5811,1.5831,1.5825,1.5919,1.5951,1.6017,1.603,1.6051,1.6064,1.6051,1.6109,1.6114,1.6119,1.6138,1.6145,1.6062,1.6062,1.6062,1.6062,0,1.5571,1.5614,1.5643,1.5699,1.5731,1.5774,1.5807,1.5836,1.5849,1.5874,1.5931,1.5971,1.6022,1.6039,1.6052,1.6108,1.6103,1.6103,1.6092,1.6125,1.6143,1.615,1.6062,1.6062,1.6062,1.6062,0,0,1.5606,1.5676,1.5686,1.5712,1.5766,1.58,1.5845,1.5895,1.5919,1.596,1.5998,1.6061,1.6061,1.6091,1.6109,1.6137,1.6177,1.6134,1.6135,1.6141,1.6241,1.6242,1.625,1.6183,1.6184,1.6185,1.6238,0,1.5651,1.5731,1.5755,1.5822,1.5864,1.588,1.5919,1.5956,1.5981,1.602,1.6048,1.6092,1.6088,1.6107,1.6136,1.6166,1.6198,1.6163,1.622,1.6222,1.6208,1.6259,1.6259,1.6307,1.6245,1.6246,1.6247,0,1.5716,1.5757,1.5828,1.5877,1.5895,1.593,1.5978,1.6014,1.6058,1.6074,1.6107,1.6123,1.6171,1.6157,1.6224,1.62,1.6225,1.6243,1.6246,1.6253,1.6237,1.6268,1.6323,1.633,1.6258,1.6257,1.6257,0,1.5735,1.5808,1.586,1.5882,1.594,1.5964,1.599,1.6032,1.6061,1.6103,1.6122,1.617,1.6196,1.6232,1.626,1.6248,1.6326,1.6314,1.6341,1.634,1.6357,1.6356,1.6417,1.6372,1.6372,1.6372,1.6371,0,1.5784,1.5827,1.587,1.5902,1.5951,1.5979,1.6027,1.6053,1.6091,1.6129,1.6146,1.6181,1.6216,1.6256,1.6279,1.6331,1.6343,1.6358,1.6363,1.6357,1.6355,1.6374,1.6371,1.6374,1.6373,1.6373,1.6372,0,1.5814,1.5844,1.5902,1.5953,1.5966,1.6,1.6044,1.6076,1.6102,1.615,1.6163,1.6203,1.6251,1.6283,1.6345,1.636,1.6418,1.6422,1.6403,1.6406,1.6431,1.6429,1.6508,1.652,1.6466,1.6466,1.6466,0,1.5844,1.5877,1.5931,1.5957,1.5983,1.6026,1.6055,1.6084,1.6114,1.6166,1.6192,1.6242,1.6283,1.636,1.6395,1.6443,1.6449,1.6473,1.6456,1.6449,1.645,1.6448,1.6452,1.6476,1.6477,1.6477,1.6477,0,1.5893,1.5907,1.5948,1.5995,1.6029,1.6067,1.6106,1.6127,1.6163,1.6196,1.6245,1.6277,1.634,1.639,1.6441,1.6468,1.6479,1.6482,1.6491,1.6485,1.6473,1.6481,1.6411,1.648,1.648,1.648,1.648,1.648,1.5925,1.5955,1.5998,1.6044,1.6076,1.6111,1.6144,1.6174,1.6215,1.6269,1.6283,1.6336,1.6379,1.6449,1.6477,1.6518,1.6516,1.6528,1.6532,1.6535,1.6535,1.6466,1.6528,1.6528,1.6528,1.6528,1.6528,0,1.5976,1.6004,1.6046,1.6099,1.6135,1.6141,1.6184,1.6215,1.626,1.6299,1.6339,1.6397,1.6445,1.6484,1.6534,1.656,1.6566,1.6572,1.6571,1.6577,1.6535,1.6522,1.6566,1.6566,1.6566,1.6566,1.6566,1.6566,1.6007,1.6059,1.6078,1.6146,1.6175,1.6225,1.625,1.6283,1.6314,1.6378,1.6418,1.6442,1.6482,1.6535,1.658,1.659,1.6608,1.6613,1.6624,1.6584,1.658,1.6576,1.6564,1.6616,1.6616,1.6663,1.6664,1.6664]}]]